Overview Statistics Trail Chart Weather Telemetry Raw packets
 

This is the latest recevied weather packets stored in our database for station/object OK1FET-5. If no packets are shown the sender has not sent any weather packets the latest 10 day(s).

<< 13 14 15 16 17 18 19 >>
Time Temp. Humidity Pressure Rain* Wind** Luminosity Snow
1788373395 17.22° C 66% 1020.9 hPa - - - -
1788372799 17.22° C 67% 1020.7 hPa - - - -
1788372203 17.22° C 67% 1020.7 hPa - - - -
1788371608 17.78° C 65% 1020.7 hPa - - - -
1788371012 17.78° C 64% 1020.5 hPa - - - -
1788370416 17.78° C 62% 1020.4 hPa - - - -
1788369820 18.33° C 60% 1020.4 hPa - - - -
1788369225 20.56° C 58% 1020.5 hPa - - - -
1788368629 22.78° C 46% 1020.1 hPa - - - -
1788368033 22.78° C 46% 1020 hPa - - - -
1788367437 23.33° C 46% 1020.1 hPa - - - -
1788366842 23.89° C 45% 1020.1 hPa - - - -
1788366246 23.89° C 44% 1020.2 hPa - - - -
1788365650 23.89° C 44% 1020.2 hPa - - - -
1788365054 23.89° C 44% 1020.2 hPa - - - -
1788364458 23.89° C 44% 1020.3 hPa - - - -
1788363863 24.44° C 44% 1020.2 hPa - - - -
1788363267 24.44° C 43% 1020.2 hPa - - - -
1788362671 24.44° C 43% 1020.3 hPa - - - -
1788362076 25° C 43% 1020.5 hPa - - - -
1788361480 25° C 42% 1020.6 hPa - - - -
1788360884 25° C 41% 1020.8 hPa - - - -
1788360288 25.56° C 40% 1020.9 hPa - - - -
1788359692 26.67° C 39% 1020.8 hPa - - - -
1788359097 28.33° C 37% 1020.9 hPa - - - -

* Rain since midnight (hover to see other rain measurements)
** Current wind speed in m/s (hover to see current wind gust speed)